SL-14 R/B, 22784

Orbit data source: Space-Track

SL-14 R/B, 22784 is space debris in LEO originally from a launch on Tue, 31 Aug 1993 UTC launched from the Plesetsk Missile And Space Complex (PKMTR). Debris objects in space refer to the collection of defunct objects orbiting the Earth. Examples of debris include non-operational satellites, rocket bodies, and fragments generated from explosions, collisions, or faulty payload assembly.

Loading next visibility...
Identifier
22784, 1993-055C
Orbit
LEO
Country
Flag of CISCIS
Related business
Manufacturer
Yuzhnoe
Mission
Spacecraft
Bus & Motor
S5M, Unknown motor
Mass
1,600 kg wet, 1,600 kg dry
Launch date (UTC)
1993-08-31 (33 years ago)
Launch vehicle
Unknown
Launch site
Plesetsk Missile And Space Complex (PKMTR)
Object type
Payload
Rocket body
Debris
Shape & HBR
Cyl, 1.8 m
Radar Cross Section
7.351 m², Large (>1 m²)

Expand to show TLE details & history
Last TLE update: 23 hours ago

TLE from 23 hours ago
0 SL-14 R/B
1 22784U 93055C   26263.86351542  .00000038  00000-0  21085-4 0  9999
2 22784  82.5496 223.9799 0021069 317.2449 102.6923 13.83552863668959
Epoch: 2026-09-20T20:43Z
TLE epoch observation values (Epoch: 2026-09-20T20:43:27.732Z)
Latitude
59.43399°
Longitude
-73.91233°
Altitude
964.813 km
Speed
7.373 km/s
True Right ascension
15h 46m 49s
True Declination
59° 17' 15"
Sunlit
Object was in daylight at epoch
Visualization orbit readout
Latitude
Unknown
Longitude
Unknown
Altitude
Unknown
Speed
Unknown
Apparent Right ascension
Unknown
Apparent Declination
Unknown
Sunlit
N/A
Visualization observer readout
Local Sidereal Time
12:52:24
Azimuth
Unknown
Elevation
Unknown
Doppler factor
Unknown
Orbital elements
Apogee altitude
963.901 km
Perigee altitude
933.028 km
Semi-major axis
7,326.602 km
Eccentricity
0.00211
Inclination
82.5496°
RAAN
223.9799°
Arg. of periapsis
317.2449°
True anomaly
102.9277°
Mean anomaly
102.6923°
Eccentric anomaly
102.81001°
Mean motion
3.4609 °/min
Orbital period
104.02 mins
BSTAR
0.000021085
Loading maneuver chart data...
Computing Atmospheric mass density...
Loading historical data...
Loading historical data...
Loading historical data...
Loading historical data...
Loading historical data...
Loading historical data...
Loading historical data...
Other satellites on launch #55 in the year 1993 (1993-08-31 UTC)

Documentation

Showing up to 5 results
|